User: anonymous   Login
Location: Cicognara
(44.9500°N, 10.4667°E)
Time: 09:35:56
(UTC+00:00)
Language:

MetOp-B - Orbit

View from above orbital plane
View from above orbital plane
View from above satellite
View from above satellite

Ground track
Ground track

The orbit data is extracted from the following two-line orbital elements,

1 38771U 12049A   21264.05158315  .00000004  00000-0  21745-4 0  9992
2 38771  98.7059 322.8768 0002264  97.2825  24.7791 14.21493142467456
Epoch (UTC): 21 September 2021 01:14:16
Eccentricity: 0.0002264
inclination: 98.7059°
perigee height: 818 km
apogee height: 822 km
right ascension of ascending node: 322.8768°
argument of perigee: 97.2825°
revolutions per day: 14.21493142
mean anomaly at epoch: 24.7791°
orbit number at epoch: 46745

The dashed part of the orbit path shows where the satellite is in the earth's shadow,  

DLR